User: anonymous   Login
Location: Allos
(44.2333°N, 6.6333°E)
Time: 02:02:49
(UTC+00:00)
Language:

PSLV R/B - Orbit

View from above orbital plane
View from above orbital plane
View from above satellite
View from above satellite

Ground track
Ground track

The orbit data is extracted from the following two-line orbital elements,

1 36800U 10035F   21060.54372703  .00000718  00000-0  71462-4 0  9996
2 36800  98.1624 254.4420 0021960 186.6859 173.4070 14.94868294579032
Epoch (UTC): 01 March 2021 13:02:58
Eccentricity: 0.0021960
inclination: 98.1624°
perigee height: 567 km
apogee height: 598 km
right ascension of ascending node: 254.4420°
argument of perigee: 186.6859°
revolutions per day: 14.94868294
mean anomaly at epoch: 173.4070°
orbit number at epoch: 57903

The dashed part of the orbit path shows where the satellite is in the earth's shadow,  

DLR